Location: Beetenbrück
(52.8113°N, 9.5946°E)
Time: 21:16:17
(UTC+00:00)

Okean-O - Pass Details

Date: 14 April 2026
Orbit: 627 x 629 km, 97.9° (Epoch: 12 May)

Event Time Altitude Azimuth Distance (km) Brightness Sun altitude
Exits shadow 19:43:01 15° 149° (SSE) 1,684 4.2 -12.2°
Maximum altitude 19:46:31 62° 71° (ENE) 711 2.7 -12.6°
Drops below altitude 10° 19:50:51 10° 351° (N) 2,021 5.9 -13.1°
Sets 19:53:05 0° 348° (NNW) 2,933 6.8 -13.4°
